This is the latest recevied weather packets stored in our database for station/object LU3HGB-WX. If no packets are shown the sender has not sent any weather packets the latest 10 day(s).
| Time | Temp. | Humidity | Pressure | Rain* | Wind** | Luminosity | Snow |
|---|---|---|---|---|---|---|---|
| 1788367660 | 23.89° C | 40% | 1012 hPa | 0 mm | - | 929 W/m² | - |
| 1788367359 | 23.89° C | 41% | 1012 hPa | 0 mm | - | 929 W/m² | - |
| 1788367059 | 23.89° C | 41% | 1012 hPa | 0 mm | - | 929 W/m² | - |
| 1788366760 | 23.89° C | 41% | 1013 hPa | 0 mm | - | 929 W/m² | - |
| 1788366460 | 23.89° C | 41% | 1013 hPa | 0 mm | - | 929 W/m² | - |
| 1788366160 | 23.33° C | 41% | 1013 hPa | 0 mm | - | 929 W/m² | - |
| 1788365860 | 23.33° C | 43% | 1013 hPa | 0 mm | - | 928 W/m² | - |
| 1788365560 | 23.33° C | 42% | 1013 hPa | 0 mm | - | 929 W/m² | - |
| 1788365261 | 23.33° C | 41% | 1013 hPa | 0 mm | - | 927 W/m² | - |
| 1788364960 | 23.33° C | 42% | 1013 hPa | 0 mm | - | 924 W/m² | - |
| 1788364660 | 22.78° C | 42% | 1013 hPa | 0 mm | - | 917 W/m² | - |
| 1788364361 | 22.78° C | 41% | 1013 hPa | 0 mm | - | 916 W/m² | - |
| 1788364059 | 22.78° C | 43% | 1014 hPa | 0 mm | - | 910 W/m² | - |
| 1788363761 | 22.22° C | 42% | 1014 hPa | 0 mm | - | 910 W/m² | - |
| 1788363460 | 22.22° C | 42% | 1014 hPa | 0 mm | - | 904 W/m² | - |
| 1788363160 | 22.22° C | 41% | 1014 hPa | 0 mm | - | 895 W/m² | - |
| 1788362859 | 22.22° C | 42% | 1014 hPa | 0 mm | - | 888 W/m² | - |
| 1788362560 | 22.22° C | 44% | 1014 hPa | 0 mm | - | 882 W/m² | - |
| 1788362260 | 22.22° C | 42% | 1014 hPa | 0 mm | - | 875 W/m² | - |
| 1788361959 | 22.22° C | 41% | 1014 hPa | 0 mm | - | 866 W/m² | - |
| 1788361661 | 21.67° C | 44% | 1014 hPa | 0 mm | - | 857 W/m² | - |
| 1788361359 | 21.11° C | 44% | 1014 hPa | 0 mm | - | 847 W/m² | - |
| 1788361060 | 21.11° C | 47% | 1014 hPa | 0 mm | - | 835 W/m² | - |
| 1788360759 | 21.11° C | 44% | 1014 hPa | 0 mm | - | 826 W/m² | - |
| 1788360460 | 21.11° C | 43% | 1014 hPa | 0 mm | - | 813 W/m² | - |
* Rain latest hour (hover to see other rain measurements)
** Current wind speed in m/s (hover to see current wind gust speed)